FW0538 Weather Reports


Display with metric or nautical units.
time (UTC)temp
F
wind
direction
speed
MPH
gust
MPH
rain 1hr
in
rain 24hr
in
rain mn
in
humidity
%
barometer
mb
20260903070003 55 233 19.0 31.0 0.00 0.00 0.00 50 1011.7
20260903064503 56 222 24.0 36.0 0.00 0.00 0.00 49 1011.1
20260903063003 55 232 23.0 36.0 0.00 0.00 0.00 49 1011.0
20260903061501 56 237 26.0 38.0 0.00 0.00 0.00 48 1010.6
20260903060100 56 224 26.0 37.0 0.00 0.00 0.00 47 1010.9
20260903060002 56 244 26.0 37.0 0.00 0.00 0.00 47 1010.7
20260903054601 56 241 22.0 31.0 0.00 0.00 0.00 48 1011.4
20260903053115 56 212 24.0 34.0 0.00 0.00 0.00 48 1011.5
20260903051558 56 218 23.0 35.0 0.00 0.00 0.00 48 1012.0
20260903050104 56 233 24.0 33.0 0.00 0.00 0.00 48 1012.3
20260903044602 56 227 24.0 32.0 0.00 0.00 0.00 50 1012.0
20260903043110 56 233 24.0 34.0 0.00 0.00 0.00 50 1011.8
20260903041558 56 243 22.0 32.0 0.00 0.00 0.00 51 1011.8
20260903040056 56 246 22.0 30.0 0.00 0.00 0.00 51 1011.6
20260903034606 56 222 19.0 27.0 0.00 0.00 0.00 51 1012.1
20260903033054 56 230 17.0 25.0 0.00 0.00 0.00 51 1012.1
20260903031611 57 238 14.0 23.0 0.00 0.00 0.00 51 1012.0
20260903030053 57 219 14.0 22.0 0.00 0.00 0.00 50 1011.9
20260903024552 57 252 16.0 22.0 0.00 0.00 0.00 49 1011.9
20260903023051 58 252 14.0 21.0 0.00 0.00 0.00 48 1011.8
20260903021553 59 249 14.0 20.0 0.00 0.00 0.00 45 1011.8
20260903020050 60 252 15.0 22.0 0.00 0.00 0.00 44 1011.9
20260903014556 61 231 11.0 18.0 0.00 0.00 0.00 41 1011.8
20260903013049 62 242 11.0 19.0 0.00 0.00 0.00 40 1011.7
20260903011548 61 223 13.0 21.0 0.00 0.00 0.00 40 1011.6
20260903010048 61 258 13.0 24.0 0.00 0.00 0.00 39 1011.6
20260903004546 63 224 15.0 23.0 0.00 0.00 0.00 37 1011.3
20260903003045 64 255 19.0 27.0 0.00 0.00 0.00 37 1011.1
20260903001547 64 248 17.0 27.0 0.00 0.00 0.00 36 1011.3
20260903000044 65 178 12.0 27.0 0.00 0.00 0.00 35 1011.3
20260902234543 65 247 14.0 23.0 0.00 0.00 0.00 35 1011.2
20260902233042 66 231 11.0 19.0 0.00 0.00 0.00 34 1011.2
20260902231539 64 227 12.0 20.0 0.00 0.00 0.00 36 1011.0
20260902230037 63 242 12.0 21.0 0.00 0.00 0.00 37 1011.5
20260902224542 63 215 16.0 22.0 0.00 0.00 0.00 34 1011.3
20260902223040 63 219 13.0 19.0 0.00 0.00 0.00 33 1011.6
20260902221541 62 228 8.0 20.0 0.00 0.00 0.00 37 1011.5
20260902220043 62 227 11.0 19.0 0.00 0.00 0.00 38 1011.8
20260902214534 62 207 11.0 19.0 0.00 0.00 0.00 38 1011.8
20260902213032 62 240 15.0 24.0 0.00 0.00 0.00 39 1012.0
20260902211530 61 213 10.0 21.0 0.00 0.00 0.00 40 1012.1
20260902210051 61 238 16.0 29.0 0.00 0.00 0.00 40 1012.1
20260902204533 61 170 15.0 26.0 0.00 0.00 0.00 39 1012.0
20260902203028 61 166 14.0 22.0 0.00 0.00 0.00 40 1011.9
20260902201530 60 215 12.0 24.0 0.00 0.00 0.00 40 1012.0
20260902200026 60 251 9.0 16.0 0.00 0.00 0.00 42 1012.2
20260902194529 60 238 14.0 21.0 0.00 0.00 0.00 40 1012.1
20260902193024 60 224 13.0 18.0 0.00 0.00 0.00 41 1012.2
20260902191521 59 228 13.0 19.0 0.00 0.00 0.00 40 1012.2
20260902190025 59 229 12.0 21.0 0.00 0.00 0.00 40 1012.2
20260902184521 59 243 16.0 27.0 0.00 0.00 0.00 41 1012.2
20260902183017 58 227 19.0 25.0 0.00 0.00 0.00 41 1012.1
20260902181516 58 243 13.0 25.0 0.00 0.00 0.00 44 1012.3
20260902180014 58 240 16.0 24.0 0.00 0.00 0.00 44 1012.2
20260902174512 57 246 13.0 23.0 0.00 0.00 0.00 46 1012.3
20260902173013 57 200 5.0 13.0 0.00 0.00 0.00 49 1012.2
20260902171508 56 209 6.0 13.0 0.00 0.00 0.00 50 1012.1
20260902170009 55 269 5.0 11.0 0.00 0.00 0.00 52 1012.1
20260902164507 55 242 8.0 13.0 0.00 0.00 0.00 52 1012.1
20260902163003 54 250 9.0 14.0 0.00 0.00 0.00 52 1011.8
20260902161504 54 241 9.0 14.0 0.00 0.00 0.00 52 1011.7
20260902160002 53 287 6.0 11.0 0.00 0.00 0.00 52 1011.8
20260902154559 53 272 5.0 11.0 0.00 0.00 0.00 52 1011.5
20260902153059 53 211 5.0 11.0 0.00 0.00 0.00 52 1011.8
20260902151601 53 262 7.0 11.0 0.00 0.00 0.00 52 1011.7
20260902150056 53 234 9.0 13.0 0.00 0.00 0.00 51 1011.5
20260902144606 53 259 10.0 17.0 0.00 0.00 0.00 50 1011.5
20260902143054 52 246 10.0 16.0 0.00 0.00 0.00 51 1011.3
20260902141550 52 267 9.0 16.0 0.00 0.00 0.00 51 1011.0
20260902140053 52 240 8.0 13.0 0.00 0.00 0.00 51 1010.8
20260902134547 52 295 8.0 12.0 0.00 0.00 0.00 50 1010.5
20260902133046 52 276 8.0 12.0 0.00 0.00 0.00 50 1010.4
20260902131544 52 275 4.0 10.0 0.00 0.00 0.00 50 1010.3
20260902130043 52 235 7.0 12.0 0.00 0.00 0.00 49 1010.3
20260902124543 52 252 8.0 16.0 0.00 0.00 0.00 49 1010.1
20260902123041 52 292 7.0 12.0 0.00 0.00 0.00 49 1010.0
20260902121540 52 255 8.0 17.0 0.00 0.00 0.00 48 1009.7
20260902120044 52 233 11.0 19.0 0.00 0.00 0.00 48 1009.7
20260902114637 52 287 12.0 19.0 0.00 0.00 0.00 49 1010.1
20260902113042 52 275 9.0 18.0 0.00 0.00 0.00 48 1009.8
20260902111539 52 282 7.0 15.0 0.00 0.00 0.00 48 1009.8
20260902110033 53 234 5.0 18.0 0.00 0.00 0.00 46 1010.0
20260902104539 52 271 4.0 16.0 0.00 0.00 0.00 46 1010.1
20260902103033 52 318 8.0 11.0 0.00 0.00 0.00 47 1010.0
20260902101535 52 307 4.0 10.0 0.00 0.00 0.00 47 1009.9
20260902100029 52 300 3.0 11.0 0.00 0.00 0.00 47 1009.7
20260902094531 51 325 5.0 10.0 0.00 0.00 0.00 47 1009.6
20260902093035 50 342 5.0 13.0 0.00 0.00 0.00 48 1009.9
20260902091526 48 26 2.0 7.0 0.00 0.00 0.00 49 1009.7
20260902090022 49 324 2.0 5.0 0.00 0.00 0.00 46 1009.7
20260902084519 51 255 1.0 4.0 0.00 0.00 0.00 44 1009.9
20260902083015 52 243 4.0 10.0 0.00 0.00 0.00 42 1009.9
20260902081512 54 230 7.0 17.0 0.00 0.00 0.00 39 1009.7
20260902080008 54 183 19.0 25.0 0.00 0.00 0.00 36 1009.0
20260902074505 55 179 19.0 29.0 0.00 0.00 0.00 35 1009.2
20260902073003 55 220 18.0 29.0 0.00 0.00 0.00 34 1009.0
20260902071600 55 243 18.0 26.0 0.00 0.00 0.00 35 1008.9
20260902070059 56 219 21.0 38.0 0.00 0.00 0.00 32 1008.4